TimePDT,TemperatureF,Dew PointF,Humidity,Sea Level PressureIn,VisibilityMPH,Wind Direction,Wind SpeedMPH,Gust SpeedMPH,PrecipitationIn,Events,Conditions,WindDirDegrees,DateUTC
12:54 AM,52.0,48.0,86,29.95,10.0,ENE,3.5,-,N/A,,Overcast,70,2013-04-24 07:54:00
1:54 AM,51.1,48.0,89,29.93,10.0,Calm,Calm,-,N/A,,Overcast,0,2013-04-24 08:54:00
2:52 AM,50.0,48.2,94,29.87,10.0,NNE,4.6,-,N/A,,Overcast,30,2013-04-24 09:52:00
2:54 AM,50.0,48.0,93,29.91,9.0,NNE,3.5,-,N/A,,Overcast,30,2013-04-24 09:54:00
3:54 AM,50.0,46.9,89,29.90,7.0,NNE,3.5,-,N/A,,Overcast,20,2013-04-24 10:54:00
4:54 AM,50.0,46.9,89,29.91,7.0,SSW,5.8,-,N/A,,Overcast,200,2013-04-24 11:54:00
5:30 AM,50.0,46.4,87,29.87,10.0,Calm,Calm,-,N/A,,Overcast,0,2013-04-24 12:30:00
5:54 AM,50.0,46.9,89,29.91,10.0,West,5.8,-,N/A,,Overcast,260,2013-04-24 12:54:00
6:54 AM,51.1,46.9,86,29.92,9.0,Calm,Calm,-,N/A,,Overcast,0,2013-04-24 13:54:00
7:54 AM,50.0,46.9,89,29.94,10.0,East,3.5,-,N/A,,Overcast,80,2013-04-24 14:54:00
8:54 AM,52.0,46.9,83,29.96,10.0,Calm,Calm,-,N/A,,Overcast,0,2013-04-24 15:54:00
9:15 AM,51.8,46.4,82,29.92,10.0,Variable,3.5,-,N/A,,Overcast,0,2013-04-24 16:15:00
9:54 AM,53.1,46.9,80,29.96,10.0,NNE,3.5,-,N/A,,Overcast,30,2013-04-24 16:54:00
10:54 AM,55.0,46.9,74,29.97,10.0,Calm,Calm,-,N/A,,Overcast,0,2013-04-24 17:54:00
11:50 AM,59.0,46.4,63,29.93,10.0,Calm,Calm,-,N/A,,Scattered Clouds,0,2013-04-24 18:50:00
11:54 AM,59.0,46.9,64,29.97,10.0,Calm,Calm,-,N/A,,Scattered Clouds,0,2013-04-24 18:54:00
12:54 PM,62.1,48.9,62,29.95,10.0,NNW,6.9,-,N/A,,Clear,330,2013-04-24 19:54:00
1:54 PM,64.9,48.9,56,29.94,10.0,Variable,3.5,-,N/A,,Clear,0,2013-04-24 20:54:00
2:54 PM,66.0,50.0,56,29.92,10.0,SW,15.0,18.4,N/A,,Clear,230,2013-04-24 21:54:00
3:07 PM,66.2,50.0,56,29.88,10.0,WSW,15.0,-,N/A,,Clear,240,2013-04-24 22:07:00
3:54 PM,64.9,50.0,58,29.91,10.0,SW,13.8,-,N/A,,Clear,230,2013-04-24 22:54:00
4:54 PM,64.0,50.0,60,29.91,10.0,SW,11.5,-,N/A,,Clear,230,2013-04-24 23:54:00
5:54 PM,62.1,50.0,65,29.92,10.0,SW,9.2,19.6,N/A,,Clear,220,2013-04-25 00:54:00
6:54 PM,55.9,50.0,80,29.94,10.0,NW,10.4,18.4,N/A,,Clear,320,2013-04-25 01:54:00
7:46 PM,53.6,50.0,88,29.92,10.0,Variable,4.6,-,N/A,,Mostly Cloudy,0,2013-04-25 02:46:00
7:54 PM,54.0,50.0,86,29.96,10.0,Variable,4.6,-,N/A,,Mostly Cloudy,0,2013-04-25 02:54:00
8:54 PM,54.0,50.0,86,29.99,10.0,NNW,3.5,-,N/A,,Overcast,330,2013-04-25 03:54:00
9:54 PM,54.0,50.0,86,30.01,10.0,Calm,Calm,-,N/A,,Overcast,0,2013-04-25 04:54:00
10:54 PM,54.0,50.0,86,30.02,10.0,NW,3.5,-,N/A,,Overcast,320,2013-04-25 05:54:00
11:54 PM,54.0,50.0,86,30.03,10.0,Calm,Calm,-,N/A,,Overcast,0,2013-04-25 06:54:00